QPF
0.02 0.02 0.02 0.02 0.02 0.01 0.02 0.02 0.02 0.01 0.02 0.03 0.03 0.03 0.05 0.09 0.12 0.15 0.14 0.09 0.05 0.03 0.02 0.01 0.01 0.01 0.01 0.02 0.04 0.03 0.04 0.05 0.05 0.08 0.09 0.08 0.07 0.06
0.03 0.04 0.03 0.03 0.02 0.01 0.02 0.04 0.05 0.04 0.03 0.04 0.04 0.03 0.06 0.08 0.09 0.10 0.11 0.09 0.07 0.05 0.03 0.02 0.01 0.01 0.02 0.03 0.05 0.05 0.05 0.05 0.04 0.05 0.07 0.06 0.05 0.05
0.02 0.02 0.02 0.02 0.02 0.01 0.02 0.04 0.06 0.07 0.06 0.04 0.04 0.04 0.06 0.07 0.08 0.08 0.08 0.09 0.09 0.06 0.05 0.04 0.03 0.02 0.03 0.04 0.06 0.06 0.05 0.04 0.04 0.04 0.05 0.05 0.04 0.04
0.02 0.02 0.02 0.02 0.02 0.02 0.02 0.02 0.03 0.06 0.07 0.06 0.05 0.05 0.05 0.06 0.08 0.08 0.08 0.09 0.10 0.08 0.06 0.05 0.03 0.03 0.03 0.05 0.05 0.04 0.04 0.04 0.03 0.03 0.04 0.03 0.04 0.04
0.02 0.03 0.03 0.03 0.02 0.02 0.02 0.02 0.02 0.03 0.05 0.05 0.05 0.06 0.07 0.06 0.06 0.06 0.06 0.07 0.07 0.07 0.06 0.04 0.03 0.03 0.03 0.03 0.04 0.04 0.04 0.03 0.03 0.03 0.03 0.04 0.03 0.04
0.02 0.02 0.02 0.02 0.03 0.03 0.03 0.02 0.02 0.03 0.03 0.04 0.04 0.05 0.06 0.06 0.04 0.05 0.05 0.04 0.03 0.03 0.04 0.03 0.02 0.02 0.02 0.03 0.03 0.03 0.03 0.03 0.03 0.03 0.03 0.03 0.03 0.03
0.02 0.02 0.03 0.03 0.03 0.04 0.03 0.03 0.02 0.03 0.02 0.02 0.03 0.04 0.05 0.05 0.04 0.04 0.04 0.03 0.03 0.02 0.03 0.03 0.02 0.01 0.01 0.02 0.03 0.03 0.04 0.03 0.04 0.03 0.03 0.02 0.02 0.02
0.03 0.03 0.03 0.03 0.03 0.03 0.03 0.03 0.04 0.04 0.03 0.02 0.02 0.03 0.03 0.04 0.04 0.04 0.05 0.03 0.03 0.04 0.04 0.05 0.05 0.03 0.02 0.01 0.02 0.02 0.03 0.04 0.04 0.03 0.02 0.02 0.01 0.01
0.02 0.02 0.02 0.02 0.02 0.02 0.02 0.03 0.03 0.03 0.02 0.02 0.02 0.02 0.02 0.03 0.04 0.05 0.05 0.05 0.04 0.05 0.05 0.06 0.06 0.06 0.05 0.02 0.01 0.01 0.02 0.03 0.04 0.03 0.02 0.02 0.01 0.01
0.02 0.01 0.02 0.02 0.02 0.02 0.02 0.02 0.02 0.02 0.02 0.01 0.01 0.01 0.02 0.02 0.03 0.04 0.05 0.05 0.06 0.06 0.05 0.05 0.05 0.05 0.05 0.04 0.02 0.02 0.02 0.02 0.03 0.03 0.02 0.02 0.01 0.01
0.02 0.02 0.02 0.01 0.01 0.02 0.02 0.02 0.03 0.02 0.02 0.02 0.02 0.02 0.02 0.01 0.02 0.03 0.04 0.04 0.04 0.05 0.06 0.06 0.05 0.06 0.06 0.04 0.03 0.03 0.03 0.03 0.03 0.03 0.02 0.02 0.02 0.02
0.02 0.02 0.02 0.02 0.02 0.02 0.02 0.02 0.03 0.02 0.02 0.02 0.02 0.02 0.02 0.02 0.02 0.02 0.03 0.04 0.05 0.06 0.06 0.08 0.06 0.06 0.06 0.05 0.04 0.02 0.02 0.03 0.04 0.04 0.03 0.02 0.02 0.02
0.02 0.02 0.01 0.01 0.02 0.02 0.02 0.02 0.03 0.04 0.03 0.02 0.02 0.01 0.02 0.02 0.02 0.02 0.03 0.04 0.06 0.07 0.07 0.08 0.08 0.06 0.05 0.04 0.05 0.03 0.02 0.02 0.03 0.03 0.04 0.03 0.02 0.02
0.01 0.01 0.01 0.01 0.01 0.01 0.01 0.01 0.02 0.03 0.03 0.03 0.02 0.02 0.02 0.02 0.01 0.02 0.03 0.03 0.03 0.06 0.08 0.08 0.09 0.07 0.05 0.04 0.03 0.04 0.02 0.01 0.02 0.03 0.03 0.03 0.02 0.01
0.01 0.01 0.01 0.01 0.01 0.01 0.01 0.01 0.02 0.02 0.03 0.03 0.03 0.02 0.03 0.02 0.02 0.02 0.02 0.03 0.03 0.04 0.06 0.08 0.09 0.08 0.06 0.04 0.03 0.03 0.03 0.02 0.02 0.02 0.02 0.02 0.02 0.01
0.02 0.02 0.03 0.02 0.01 0.01 0.01 0.01 0.01 0.02 0.03 0.03 0.03 0.04 0.04 0.04 0.02 0.01 0.01 0.02 0.02 0.03 0.04 0.06 0.08 0.08 0.07 0.06 0.05 0.04 0.03 0.03 0.03 0.03 0.02 0.02 0.02 0.03
0.02 0.02 0.03 0.03 0.02 0.01 0.01 0.01 0.01 0.01 0.02 0.03 0.04 0.05 0.06 0.06 0.04 0.02 0.02 0.01 0.01 0.02 0.04 0.05 0.05 0.05 0.05 0.06 0.06 0.06 0.05 0.04 0.04 0.04 0.03 0.03 0.02 0.02
0.02 0.02 0.02 0.02 0.02 0.02 0.01 0.01 0.01 0.01 0.02 0.02 0.04 0.04 0.05 0.06 0.05 0.03 0.02 0.02 0.02 0.02 0.03 0.05 0.04 0.03 0.04 0.05 0.06 0.07 0.07 0.06 0.06 0.05 0.04 0.04 0.04 0.03
0.02 0.01 0.01 0.01 0.01 0.01 0.01 0.01 0.01 0.02 0.02 0.02 0.03 0.05 0.06 0.06 0.06 0.06 0.04 0.03 0.03 0.03 0.03 0.05 0.05 0.04 0.04 0.04 0.05 0.05 0.07 0.09 0.08 0.08 0.07 0.05 0.04 0.03
0.02 0.01 0.01 0.01 0.01 0.01 0.01 0.01 0.01 0.01 0.02 0.02 0.03 0.03 0.04 0.05 0.06 0.06 0.07 0.06 0.05 0.05 0.05 0.06 0.05 0.04 0.04 0.04 0.05 0.05 0.06 0.08 0.09 0.09 0.08 0.06 0.05 0.05
0.03 0.02 0.01 0.01 0.01 0.01 0.01 0.01 0.01 0.01 0.01 0.02 0.03 0.03 0.03 0.04 0.05 0.06 0.07 0.07 0.05 0.05 0.06 0.06 0.06 0.06 0.04 0.04 0.04 0.04 0.04 0.06 0.08 0.08 0.08 0.08 0.08 0.07
0.04 0.03 0.02 0.02 0.02 0.02 0.01 0.01 0.01 0.01 0.02 0.02 0.03 0.04 0.03 0.03 0.04 0.04 0.06 0.07 0.06 0.05 0.04 0.05 0.04 0.04 0.04 0.04 0.03 0.03 0.03 0.04 0.06 0.07 0.06 0.06 0.06 0.06
0.04 0.03 0.03 0.02 0.02 0.02 0.02 0.02 0.01 0.01 0.01 0.02 0.03 0.04 0.04 0.03 0.03 0.04 0.04 0.05 0.05 0.05 0.04 0.04 0.04 0.03 0.03 0.03 0.03 0.02 0.02 0.02 0.03 0.05 0.05 0.04 0.04 0.04
MSLP
1016.11 1016.29 1016.46 1016.64 1016.83 1017.01 1017.19 1017.37 1017.54 1017.70 1017.84 1017.94 1017.98 1017.92 1017.75 1017.43 1016.96 1016.35 1015.60 1014.77 1013.90 1013.08 1012.35 1011.81 1011.48 1011.42 1011.62 1012.10 1012.81 1013.72 1014.75 1015.85 1016.96 1018.03 1019.03 1019.91 1020.68 1021.36
1015.54 1015.71 1015.88 1016.06 1016.25 1016.46 1016.68 1016.91 1017.15 1017.38 1017.60 1017.77 1017.87 1017.86 1017.72 1017.41 1016.94 1016.31 1015.53 1014.66 1013.75 1012.88 1012.11 1011.52 1011.16 1011.06 1011.25 1011.72 1012.43 1013.35 1014.41 1015.54 1016.69 1017.79 1018.82 1019.72 1020.52 1021.19
1014.97 1015.12 1015.28 1015.46 1015.66 1015.89 1016.15 1016.43 1016.74 1017.06 1017.35 1017.61 1017.78 1017.84 1017.76 1017.50 1017.07 1016.47 1015.72 1014.87 1013.98 1013.12 1012.36 1011.76 1011.39 1011.27 1011.43 1011.86 1012.55 1013.43 1014.46 1015.56 1016.69 1017.78 1018.79 1019.68 1020.46 1021.12
1014.43 1014.55 1014.69 1014.86 1015.06 1015.31 1015.61 1015.95 1016.32 1016.70 1017.08 1017.42 1017.68 1017.82 1017.82 1017.65 1017.30 1016.78 1016.12 1015.36 1014.55 1013.76 1013.06 1012.50 1012.14 1012.02 1012.15 1012.54 1013.16 1013.96 1014.91 1015.93 1016.98 1018.00 1018.95 1019.80 1020.53 1021.16
1013.92 1014.02 1014.13 1014.28 1014.47 1014.73 1015.05 1015.43 1015.85 1016.30 1016.75 1017.17 1017.51 1017.74 1017.84 1017.78 1017.55 1017.16 1016.64 1016.02 1015.35 1014.69 1014.09 1013.62 1013.31 1013.20 1013.31 1013.64 1014.16 1014.86 1015.68 1016.58 1017.51 1018.42 1019.27 1020.04 1020.70 1021.27
1013.46 1013.50 1013.57 1013.69 1013.87 1014.12 1014.45 1014.85 1015.31 1015.81 1016.31 1016.79 1017.21 1017.53 1017.73 1017.79 1017.71 1017.48 1017.13 1016.69 1016.20 1015.72 1015.27 1014.91 1014.68 1014.60 1014.70 1014.96 1015.38 1015.95 1016.62 1017.36 1018.14 1018.91 1019.64 1020.30 1020.88 1021.38
1013.01 1012.99 1013.02 1013.10 1013.25 1013.49 1013.81 1014.22 1014.69 1015.21 1015.75 1016.27 1016.75 1017.14 1017.44 1017.62 1017.68 1017.62 1017.46 1017.22 1016.94 1016.64 1016.37 1016.15 1016.01 1015.97 1016.05 1016.25 1016.57 1017.00 1017.52 1018.09 1018.70 1019.32 1019.92 1020.48 1020.98 1021.42
1012.58 1012.50 1012.47 1012.51 1012.63 1012.84 1013.14 1013.54 1014.00 1014.52 1015.07 1015.61 1016.12 1016.57 1016.94 1017.22 1017.41 1017.50 1017.52 1017.48 1017.40 1017.29 1017.19 1017.11 1017.07 1017.08 1017.15 1017.30 1017.52 1017.82 1018.18 1018.60 1019.06 1019.54 1020.02 1020.48 1020.91 1021.29
1012.18 1012.04 1011.96 1011.95 1012.03 1012.21 1012.49 1012.85 1013.29 1013.79 1014.32 1014.85 1015.37 1015.84 1016.25 1016.60 1016.89 1017.11 1017.28 1017.40 1017.49 1017.55 1017.60 1017.65 1017.70 1017.76 1017.83 1017.94 1018.08 1018.27 1018.51 1018.79 1019.12 1019.48 1019.87 1020.25 1020.63 1020.97
1011.85 1011.67 1011.54 1011.49 1011.53 1011.67 1011.91 1012.24 1012.64 1013.09 1013.58 1014.08 1014.56 1015.03 1015.45 1015.83 1016.17 1016.47 1016.74 1016.99 1017.20 1017.40 1017.57 1017.72 1017.84 1017.94 1018.03 1018.11 1018.19 1018.30 1018.45 1018.63 1018.87 1019.15 1019.47 1019.80 1020.15 1020.47
1011.64 1011.42 1011.26 1011.18 1011.18 1011.28 1011.48 1011.76 1012.10 1012.50 1012.93 1013.37 1013.80 1014.22 1014.61 1014.98 1015.33 1015.67 1015.99 1016.31 1016.60 1016.89 1017.14 1017.37 1017.55 1017.69 1017.79 1017.86 1017.92 1017.99 1018.07 1018.20 1018.38 1018.61 1018.89 1019.20 1019.52 1019.84
1011.59 1011.35 1011.16 1011.05 1011.02 1011.08 1011.23 1011.45 1011.73 1012.06 1012.41 1012.78 1013.14 1013.48 1013.82 1014.15 1014.47 1014.79 1015.13 1015.47 1015.81 1016.14 1016.45 1016.72 1016.95 1017.12 1017.25 1017.33 1017.38 1017.43 1017.50 1017.60 1017.75 1017.96 1018.21 1018.51 1018.82 1019.13
1011.70 1011.44 1011.23 1011.09 1011.03 1011.06 1011.15 1011.32 1011.53 1011.79 1012.06 1012.33 1012.60 1012.87 1013.12 1013.38 1013.65 1013.93 1014.24 1014.57 1014.92 1015.27 1015.61 1015.91 1016.18 1016.39 1016.54 1016.65 1016.72 1016.77 1016.84 1016.93 1017.08 1017.27 1017.51 1017.79 1018.09 1018.39
1011.95 1011.67 1011.45 1011.28 1011.19 1011.17 1011.22 1011.33 1011.47 1011.65 1011.84 1012.02 1012.20 1012.37 1012.54 1012.72 1012.92 1013.15 1013.41 1013.71 1014.04 1014.40 1014.74 1015.07 1015.37 1015.61 1015.79 1015.93 1016.02 1016.10 1016.17 1016.27 1016.41 1016.59 1016.82 1017.08 1017.35 1017.63
1012.26 1011.97 1011.73 1011.54 1011.42 1011.36 1011.37 1011.42 1011.50 1011.61 1011.72 1011.82 1011.91 1011.99 1012.08 1012.17 1012.30 1012.46 1012.67 1012.94 1013.25 1013.59 1013.94 1014.28 1014.59 1014.86 1015.07 1015.24 1015.36 1015.45 1015.54 1015.63 1015.76 1015.92 1016.12 1016.34 1016.58 1016.81
1012.57 1012.27 1012.01 1011.80 1011.65 1011.56 1011.52 1011.53 1011.56 1011.61 1011.65 1011.68 1011.70 1011.70 1011.71 1011.74 1011.79 1011.90 1012.06 1012.29 1012.57 1012.89 1013.23 1013.58 1013.90 1014.18 1014.42 1014.60 1014.73 1014.83 1014.91 1015.00 1015.10 1015.22 1015.38 1015.55 1015.73 1015.91
1012.81 1012.50 1012.22 1012.00 1011.83 1011.72 1011.66 1011.63 1011.63 1011.63 1011.62 1011.60 1011.55 1011.50 1011.45 1011.42 1011.42 1011.47 1011.59 1011.78 1012.03 1012.32 1012.65 1012.99 1013.31 1013.59 1013.82 1014.00 1014.13 1014.22 1014.28 1014.33 1014.39 1014.47 1014.56 1014.67 1014.79 1014.90
1012.95 1012.63 1012.36 1012.13 1011.96 1011.84 1011.77 1011.73 1011.70 1011.68 1011.64 1011.58 1011.50 1011.40 1011.31 1011.23 1011.19 1011.21 1011.28 1011.43 1011.65 1011.91 1012.21 1012.52 1012.82 1013.08 1013.29 1013.45 1013.55 1013.61 1013.63 1013.64 1013.64 1013.65 1013.68 1013.72 1013.76 1013.81
1013.00 1012.70 1012.44 1012.23 1012.07 1011.96 1011.90 1011.86 1011.83 1011.80 1011.74 1011.66 1011.56 1011.44 1011.32 1011.21 1011.14 1011.12 1011.16 1011.27 1011.45 1011.67 1011.93 1012.20 1012.45 1012.67 1012.84 1012.95 1013.01 1013.02 1012.99 1012.95 1012.89 1012.84 1012.79 1012.76 1012.74 1012.72
1013.02 1012.75 1012.52 1012.35 1012.22 1012.14 1012.10 1012.08 1012.06 1012.03 1011.98 1011.89 1011.78 1011.65 1011.51 1011.38 1011.28 1011.23 1011.24 1011.31 1011.44 1011.62 1011.82 1012.03 1012.23 1012.39 1012.50 1012.56 1012.56 1012.52 1012.44 1012.34 1012.22 1012.11 1012.00 1011.91 1011.83 1011.75
1013.05 1012.84 1012.67 1012.54 1012.46 1012.42 1012.42 1012.42 1012.43 1012.41 1012.37 1012.29 1012.17 1012.03 1011.89 1011.75 1011.63 1011.56 1011.53 1011.56 1011.65 1011.76 1011.91 1012.05 1012.18 1012.28 1012.33 1012.32 1012.27 1012.18 1012.05 1011.90 1011.74 1011.58 1011.42 1011.28 1011.14 1011.01
1013.15 1013.01 1012.90 1012.84 1012.81 1012.82 1012.85 1012.89 1012.92 1012.92 1012.89 1012.82 1012.71 1012.58 1012.43 1012.28 1012.16 1012.06 1012.01 1012.00 1012.04 1012.10 1012.19 1012.26 1012.33 1012.36 1012.35 1012.29 1012.19 1012.05 1011.88 1011.70 1011.50 1011.31 1011.12 1010.94 1010.76 1010.58
1013.31 1013.24 1013.21 1013.21 1013.25 1013.30 1013.37 1013.44 1013.49 1013.51 1013.49 1013.43 1013.34 1013.21 1013.07 1012.92 1012.79 1012.69 1012.61 1012.58 1012.57 1012.59 1012.62 1012.64 1012.64 1012.62 1012.55 1012.45 1012.31 1012.14 1011.95 1011.75 1011.53 1011.32 1011.11 1010.90 1010.69 1010.46
Thickness
5645 5645 5644 5645 5645 5645 5644 5641 5636 5632 5633 5638 5641 5644 5645 5646 5646 5648 5648 5649 5650 5651 5651 5651 5651 5651 5651 5651 5651 5651 5650 5650 5650 5649 5649 5649 5649 5649
5639 5639 5639 5639 5639 5639 5638 5637 5636 5632 5628 5632 5634 5637 5639 5640 5639 5641 5642 5643 5643 5644 5644 5644 5645 5645 5645 5645 5644 5644 5644 5643 5643 5642 5642 5642 5642 5642
5634 5633 5633 5633 5633 5633 5632 5631 5630 5629 5624 5626 5629 5631 5632 5632 5633 5634 5634 5635 5636 5637 5637 5638 5638 5638 5638 5638 5637 5637 5636 5636 5636 5635 5635 5634 5635 5635
5626 5626 5626 5627 5626 5626 5626 5625 5624 5624 5621 5618 5620 5622 5624 5625 5626 5626 5627 5628 5629 5629 5630 5631 5631 5631 5631 5631 5630 5630 5629 5629 5628 5628 5628 5628 5628 5628
5620 5619 5619 5619 5618 5619 5618 5618 5618 5618 5616 5614 5613 5614 5616 5617 5618 5618 5619 5620 5621 5622 5622 5622 5623 5623 5623 5623 5622 5622 5622 5621 5621 5621 5621 5621 5621 5621
5615 5614 5613 5613 5612 5611 5611 5611 5611 5610 5608 5607 5606 5606 5607 5608 5609 5608 5609 5610 5612 5613 5614 5614 5614 5614 5614 5614 5614 5614 5614 5614 5614 5614 5614 5614 5614 5614
5608 5607 5607 5606 5606 5605 5605 5604 5603 5601 5600 5599 5598 5598 5597 5598 5598 5600 5599 5601 5602 5604 5605 5606 5606 5606 5606 5606 5607 5607 5606 5606 5607 5607 5607 5607 5607 5608
5600 5599 5600 5599 5598 5598 5598 5598 5597 5594 5593 5591 5590 5589 5589 5590 5591 5592 5591 5591 5591 5595 5596 5597 5598 5598 5599 5599 5600 5600 5600 5600 5600 5600 5600 5600 5601 5601
5592 5591 5592 5591 5590 5589 5590 5589 5589 5589 5588 5586 5583 5583 5583 5584 5584 5584 5584 5584 5584 5587 5588 5588 5590 5590 5592 5593 5593 5593 5593 5593 5593 5593 5593 5593 5594 5594
5585 5584 5583 5582 5582 5581 5580 5579 5579 5580 5580 5579 5578 5578 5579 5578 5578 5577 5577 5578 5579 5580 5582 5580 5582 5582 5584 5585 5586 5586 5586 5586 5586 5586 5587 5587 5587 5587
5578 5577 5575 5573 5573 5573 5571 5570 5569 5570 5571 5571 5572 5572 5572 5572 5572 5570 5569 5569 5569 5571 5574 5573 5574 5574 5576 5577 5578 5578 5578 5579 5579 5580 5580 5581 5581 5581
5569 5568 5567 5565 5564 5563 5561 5560 5559 5560 5561 5561 5562 5563 5564 5564 5565 5564 5563 5562 5562 5563 5566 5565 5566 5566 5566 5570 5571 5571 5571 5572 5572 5573 5574 5575 5575 5575
5558 5557 5556 5556 5555 5554 5554 5552 5552 5552 5552 5552 5552 5553 5554 5555 5556 5556 5557 5556 5555 5556 5559 5559 5558 5558 5558 5560 5563 5564 5564 5565 5565 5566 5567 5568 5569 5569
5549 5548 5547 5546 5546 5545 5544 5544 5544 5544 5543 5542 5542 5543 5544 5545 5547 5548 5549 5550 5551 5551 5553 5553 5552 5552 5552 5552 5554 5556 5557 5558 5559 5560 5561 5562 5562 5563
5541 5540 5539 5538 5536 5535 5535 5535 5534 5533 5533 5532 5533 5534 5536 5537 5539 5540 5541 5543 5544 5545 5546 5547 5546 5547 5547 5546 5547 5548 5549 5550 5552 5553 5554 5555 5556 5556
5531 5531 5530 5528 5527 5526 5525 5525 5524 5524 5524 5524 5524 5525 5527 5528 5529 5531 5532 5533 5534 5535 5537 5538 5539 5539 5539 5540 5540 5541 5542 5543 5545 5547 5548 5549 5550 5551
5522 5520 5518 5517 5516 5515 5515 5515 5515 5516 5515 5516 5516 5516 5518 5519 5520 5522 5524 5524 5524 5525 5527 5529 5530 5531 5532 5533 5533 5534 5535 5537 5539 5540 5541 5542 5544 5545
5514 5511 5509 5508 5507 5506 5506 5506 5506 5506 5506 5507 5507 5508 5509 5510 5512 5513 5515 5515 5516 5517 5518 5520 5521 5522 5523 5524 5526 5527 5527 5529 5531 5533 5535 5535 5537 5538
5504 5503 5501 5500 5499 5498 5497 5496 5496 5497 5497 5497 5498 5499 5500 5502 5502 5504 5505 5507 5508 5509 5510 5512 5513 5513 5512 5514 5517 5519 5520 5521 5523 5525 5527 5529 5530 5532
5495 5494 5493 5492 5490 5489 5488 5488 5488 5488 5488 5488 5489 5490 5491 5492 5494 5495 5496 5497 5499 5500 5501 5503 5504 5506 5506 5507 5509 5511 5513 5514 5516 5518 5519 5522 5523 5525
5487 5486 5485 5484 5482 5481 5480 5480 5479 5479 5479 5479 5480 5481 5482 5483 5484 5486 5487 5489 5490 5491 5492 5494 5497 5499 5501 5502 5502 5504 5506 5508 5509 5511 5512 5513 5514 5515
5478 5478 5477 5476 5475 5473 5472 5471 5471 5470 5470 5470 5471 5472 5473 5474 5475 5477 5478 5479 5481 5483 5485 5486 5489 5490 5491 5493 5494 5495 5497 5500 5502 5504 5505 5506 5506 5507
5471 5469 5468 5468 5467 5465 5464 5463 5462 5462 5462 5462 5463 5463 5464 5465 5466 5467 5469 5470 5472 5474 5476 5477 5479 5481 5483 5484 5485 5487 5489 5491 5493 5495 5497 5499 5501 5503